FW1230 Weather Reports


Display with metric or nautical units.
time (UTC)temp
F
wind
direction
speed
MPH
gust
MPH
rain 1hr
in
rain 24hr
in
rain mn
in
humidity
%
barometer
mb
20200402094911 51 51 0.0 0.0 0.00 0.18 0.00 92 1016.9
20200402093037 50 51 0.0 1.0 0.00 0.18 0.00 91 1016.9
20200402090953 52 51 0.0 0.0 0.00 0.18 0.00 91 1016.8
20200402085449 54 51 0.0 2.0 0.00 0.21 0.00 91 1016.9
20200402083454 54 51 3.0 4.0 0.00 0.21 0.00 91 1017.0
20200402081516 54 51 3.0 6.0 0.00 0.21 0.00 92 1017.0
20200402075955 54 51 4.0 6.0 0.00 0.21 0.00 92 1016.7
20200402074011 52 90 0.0 0.0 0.00 0.24 0.00 91 1016.6
20200402072447 53 90 0.0 0.0 0.00 0.24 0.00 91 1016.8
20200402070539 53 90 0.0 0.0 0.00 0.24 0.00 91 1017.0
20200402064954 53 90 0.0 0.0 0.00 0.29 0.00 90 1017.2
20200402063110 52 90 0.0 0.0 0.00 0.29 0.00 89 1017.1
20200402061504 53 90 0.0 0.0 0.00 0.29 0.00 88 1017.3
20200402055508 54 90 0.0 2.0 0.00 0.37 0.00 89 1017.3
20200402053509 55 90 0.0 3.0 0.00 0.37 0.00 89 1017.2
20200402051523 54 91 0.0 2.0 0.00 0.37 0.00 89 1017.2
20200402050002 54 91 0.0 3.0 0.00 0.37 0.00 89 1017.5
20200402044449 55 91 3.0 4.0 0.00 0.51 0.00 88 1017.4
20200402042807 56 3 0.0 1.0 0.00 0.51 0.00 86 1017.1
20200402040453 57 3 0.0 0.0 0.00 0.51 0.00 85 1016.9
20200402034950 58 3 0.0 0.0 0.00 0.52 0.51 84 1017.1
20200402033026 59 3 0.0 0.0 0.00 0.52 0.51 82 1016.8
20200402031456 59 3 0.0 0.0 0.00 0.52 0.51 81 1016.8
20200402025941 60 3 0.0 3.0 0.00 0.52 0.51 80 1016.5
20200402023959 60 5 2.0 6.0 0.00 0.52 0.51 79 1016.3
20200402022452 60 345 2.0 6.0 0.00 0.52 0.51 79 1016.1
20200402020529 61 2 4.0 8.0 0.00 0.52 0.51 79 1015.9
20200402014452 61 356 4.0 8.0 0.00 0.52 0.51 80 1015.7
20200402012455 61 331 2.0 4.0 0.00 0.52 0.51 79 1015.3
20200402010951 62 326 0.0 3.0 0.00 0.52 0.51 77 1015.1
20200402005016 63 347 2.0 5.0 0.00 0.52 0.51 76 1014.8
20200402003500 63 333 3.0 5.0 0.00 0.52 0.51 74 1014.4
20200402001452 64 336 1.0 4.0 0.00 0.52 0.51 71 1014.2
20200402000013 66 320 2.0 5.0 0.00 0.52 0.51 68 1014.0
20200401233959 67 322 4.0 9.0 0.00 0.52 0.51 64 1013.7
20200401232500 68 321 6.0 12.0 0.00 0.52 0.51 62 1013.5
20200401230951 70 14 4.0 10.0 0.00 0.52 0.51 60 1013.2
20200401225009 71 322 8.0 14.0 0.01 0.52 0.51 59 1013.1
20200401222958 72 318 8.0 14.0 0.01 0.52 0.51 56 1013.0
20200401221006 72 332 5.0 15.0 0.01 0.52 0.51 58 1012.8
20200401215008 73 306 10.0 15.0 0.00 0.52 0.50 56 1012.7
20200401213455 74 330 8.0 13.0 0.00 0.52 0.50 57 1012.6
20200401211944 74 340 7.0 14.0 0.00 0.52 0.50 54 1012.6
20200401210001 75 317 8.0 13.0 0.00 0.52 0.50 52 1012.5
20200401204453 75 317 9.0 14.0 0.01 0.52 0.50 51 1012.5
20200401202949 75 359 6.0 13.0 0.01 0.52 0.50 42 1012.3
20200401201005 75 349 9.0 15.0 0.01 0.52 0.50 39 1012.4
20200401195503 75 315 7.0 15.0 0.01 0.52 0.50 42 1012.4
20200401193947 75 309 8.0 17.0 0.00 0.51 0.49 46 1012.4
20200401192441 75 346 10.0 16.0 0.01 0.51 0.49 46 1012.4
20200401190504 75 351 9.0 17.0 0.01 0.51 0.49 49 1012.6
20200401184502 74 344 8.0 13.0 0.01 0.51 0.49 50 1012.7
20200401182506 73 340 9.0 14.0 0.01 0.50 0.48 53 1012.7
20200401180519 73 318 10.0 15.0 0.01 0.50 0.48 57 1012.9
20200401174943 73 307 6.0 14.0 0.02 0.50 0.48 60 1013.0
20200401173030 72 3 7.0 13.0 0.01 0.49 0.47 61 1013.1
20200401170959 71 4 5.0 12.0 0.02 0.49 0.47 64 1013.3
20200401165455 71 345 8.0 12.0 0.01 0.48 0.46 66 1013.4
20200401163942 70 61 5.0 15.0 0.01 0.48 0.46 65 1013.7
20200401162009 70 295 5.0 15.0 0.02 0.48 0.46 69 1013.9
20200401160504 69 342 4.0 16.0 0.01 0.47 0.45 72 1014.1
20200401154448 69 297 7.0 12.0 0.01 0.47 0.45 72 1014.3
20200401152015 68 13 8.0 13.0 0.01 0.46 0.44 74 1014.2
20200401150443 67 14 8.0 17.0 0.01 0.46 0.44 73 1014.3
20200401144456 66 24 8.0 16.0 0.02 0.46 0.44 75 1014.2
20200401142451 66 12 9.0 15.0 0.01 0.45 0.43 76 1014.1
20200401140949 65 23 9.0 12.0 0.02 0.45 0.43 77 1014.1
20200401135018 65 24 8.0 16.0 0.01 0.44 0.42 79 1013.9
20200401133040 64 26 11.0 16.0 0.02 0.44 0.42 81 1013.7
20200401131509 65 30 9.0 15.0 0.02 0.44 0.42 84 1013.4
20200401125505 65 30 7.0 16.0 0.02 0.43 0.41 84 1013.1
20200401123956 64 20 8.0 12.0 0.02 0.43 0.41 85 1013.1
20200401121959 64 18 8.0 13.0 0.02 0.42 0.40 85 1012.9
20200401120040 65 359 7.0 14.0 0.01 0.41 0.39 85 1012.6
20200401114502 66 16 7.0 13.0 0.02 0.41 0.39 86 1012.2
20200401112950 66 11 2.0 8.0 0.02 0.41 0.39 87 1012.0
20200401110956 67 355 8.0 13.0 0.02 0.40 0.38 86 1011.5
20200401105000 68 334 9.0 12.0 0.02 0.39 0.37 87 1011.1
20200401103055 69 346 8.0 13.0 0.03 0.39 0.37 88 1010.7
20200401101453 70 3 6.0 11.0 0.02 0.38 0.36 89 1010.5